This is the latest recevied weather packets stored in our database for station/object KB0BS-13. If no packets are shown the sender has not sent any weather packets the latest 10 day(s).
| Time | Temp. | Humidity | Pressure | Rain* | Wind** | Luminosity | Snow |
|---|---|---|---|---|---|---|---|
| 1777908549 | 14.44° C | 64% | 995.6 hPa | 0 mm | - | 430 W/m² | - |
| 1777907944 | 13.89° C | 66% | 995.9 hPa | 0 mm | - | 575 W/m² | - |
| 1777907638 | 13.89° C | 69% | 996 hPa | 0 mm | - | 505 W/m² | - |
| 1777907334 | 13.33° C | 68% | 995.9 hPa | 0 mm | - | 476 W/m² | - |
| 1777907031 | 13.33° C | 68% | 996.3 hPa | 0 mm | - | 443 W/m² | - |
| 1777906729 | 12.78° C | 68% | 996.5 hPa | 0 mm | - | 398 W/m² | - |
| 1777906425 | 12.78° C | 70% | 996.5 hPa | 0 mm | - | 323 W/m² | - |
| 1777906122 | 12.78° C | 69% | 996.7 hPa | 0 mm | - | 297 W/m² | - |
| 1777905818 | 12.22° C | 72% | 996.6 hPa | 0 mm | - | 307 W/m² | - |
| 1777905516 | 12.22° C | 74% | 996.5 hPa | 0 mm | - | 286 W/m² | - |
| 1777905212 | 11.67° C | 76% | 996.7 hPa | 0 mm | - | 316 W/m² | - |
| 1777904910 | 8.89° C | 99% | 997 hPa | 0 mm | - | 268 W/m² | - |
| 1777904607 | 8.33° C | 99% | 996.9 hPa | 0 mm | - | 245 W/m² | - |
| 1777904304 | 7.78° C | 99% | 997.1 hPa | 0 mm | - | 253 W/m² | - |
| 1777903698 | 6.67° C | 99% | 997.2 hPa | 0 mm | - | 252 W/m² | - |
| 1777903090 | 6.11° C | 99% | 997.4 hPa | 0 mm | - | 249 W/m² | - |
| 1777902787 | 5.56° C | 99% | 997.3 hPa | 0 mm | - | 223 W/m² | - |
| 1777902485 | 5.56° C | 99% | 997.3 hPa | 0 mm | - | 221 W/m² | - |
| 1777901879 | 5° C | 99% | 997.7 hPa | 0 mm | - | 239 W/m² | - |
| 1777901576 | 4.44° C | 99% | 997.8 hPa | 0 mm | - | 267 W/m² | - |
| 1777901274 | 3.89° C | 99% | 997.9 hPa | 0 mm | - | 192 W/m² | - |
| 1777900971 | 3.89° C | 99% | 998 hPa | 0 mm | - | 201 W/m² | - |
| 1777900668 | 3.89° C | 99% | 998.4 hPa | 0 mm | - | 193 W/m² | - |
| 1777900365 | 3.33° C | 99% | 998.4 hPa | 0 mm | - | 162 W/m² | - |
| 1777900062 | 2.78° C | 99% | 998.6 hPa | 0 mm | - | 157 W/m² | - |
* Rain latest hour (hover to see other rain measurements)
** Current wind speed in m/s (hover to see current wind gust speed)